Location: Unspecified
(41.1637°N, 24.2901°E)
Time: 01:50:41
(UTC+01:00)

ISS - Pass Details

Date: 13 November 2025
Orbit: 414 x 420 km, 51.6° (Epoch: 18 November)

Event Time Altitude Azimuth Distance (km) Brightness Sun altitude
Rises 18:11:08 0° 245° (WSW) 2,342 1.2 -23.7°
Reaches altitude 10° 18:13:15 10° 251° (WSW) 1,483 0.0 -24.1°
Enters shadow 18:15:31 36° 275° (W) 672 -2.2 -24.5°
